Theta_e
337 338 339 340 339 339 338 338 338 338 339 340 339 340 340 340 339 338 337 335 335 335 334 334 334 334 334 333 333 331 331 330 331 331 329 328 327 326 325 324 324 324 324 323 323 322 322 322 321 321 320 319 319 319 318 318 318 318 317 317 317 317 317 316 316 316 315 314 314 314 314 314 313 313 313 313 313 313 313 313 313 312 312 311 311
334 335 336 337 337 338 339 338 338 338 338 339 339 340 340 340 340 339 337 336 336 335 335 335 334 334 334 334 333 332 331 331 330 330 330 329 328 326 324 324 324 324 324 324 323 321 321 321 321 320 320 320 319 319 318 318 317 317 317 317 317 316 316 316 315 315 315 314 314 314 314 313 313 313 313 313 313 313 313 313 312 312 311 311 310
331 334 333 332 333 334 337 337 337 338 337 338 339 339 340 340 340 340 339 337 336 336 335 335 335 334 334 334 334 333 332 331 331 330 330 329 328 327 325 324 324 325 324 324 323 321 321 321 321 320 320 320 319 319 319 318 317 317 317 316 316 316 316 316 315 314 314 314 314 313 313 313 313 313 313 313 313 313 312 313 312 311 311 310 310
321 331 334 330 331 331 332 334 335 337 337 337 338 338 339 339 340 340 340 339 337 336 336 335 335 335 334 334 334 333 332 331 331 330 330 329 328 328 327 325 324 324 324 324 323 322 322 322 321 321 320 320 320 319 318 317 317 317 316 316 315 316 316 316 315 314 314 313 314 313 313 313 313 313 313 312 312 312 312 312 312 311 311 310 310
315 326 334 331 332 331 330 331 333 335 337 337 337 337 338 338 339 339 339 339 338 337 336 336 335 335 335 334 334 333 333 332 331 331 330 329 329 329 328 327 325 324 324 323 323 322 322 322 321 321 321 320 319 319 318 317 317 316 316 316 315 315 315 315 315 315 314 313 313 313 313 313 312 313 313 313 312 312 312 312 312 311 311 310 310
321 323 332 334 332 330 330 330 331 333 335 336 336 336 336 337 338 338 338 338 338 337 337 336 336 336 335 335 334 334 333 332 331 331 330 330 329 329 328 328 327 326 324 323 323 323 322 322 321 321 321 320 320 319 318 318 317 316 316 316 316 315 315 314 315 315 314 314 313 312 313 312 312 312 312 312 312 312 312 312 312 311 310 310 310
331 325 329 335 332 330 330 330 331 330 331 333 334 335 335 336 336 336 337 337 337 337 336 336 336 336 335 335 335 334 334 333 332 332 331 331 330 329 329 328 328 327 326 325 323 323 323 323 321 321 321 320 320 319 319 318 317 317 316 316 316 316 315 314 314 315 315 314 313 312 312 312 312 312 312 312 311 311 311 311 311 311 310 309 310
337 329 328 333 333 330 331 332 330 328 331 332 331 333 334 334 335 335 336 335 336 336 335 335 335 336 336 335 335 334 334 334 333 332 331 331 330 330 329 329 329 328 328 327 326 324 322 322 322 321 321 321 320 319 319 319 318 318 317 316 316 316 315 315 314 314 314 313 313 312 312 312 312 312 312 312 311 310 310 309 309 310 310 309 310
339 333 330 333 334 332 333 334 330 330 333 331 329 332 332 333 334 334 335 334 333 334 334 334 335 335 336 335 335 335 334 334 333 333 332 332 331 331 330 330 329 329 328 328 329 326 322 321 321 320 321 321 320 320 319 319 318 318 317 317 316 315 315 315 315 314 313 313 313 313 312 312 312 312 312 312 311 310 309 307 306 308 310 309 309
340 337 335 335 335 334 335 334 330 333 336 331 330 332 331 332 332 332 332 332 332 332 334 334 334 335 335 336 335 335 334 333 333 333 333 332 332 331 330 330 329 329 329 328 329 328 325 322 320 320 320 319 320 320 319 319 319 318 317 317 316 316 315 315 315 315 314 313 313 313 312 312 312 312 312 312 311 310 309 306 303 305 308 309 309
339 339 338 336 335 334 336 334 332 336 336 333 333 333 334 334 332 331 330 331 332 332 334 335 335 335 335 336 335 335 334 333 333 333 333 333 332 332 331 331 330 329 329 329 329 329 328 326 323 323 322 319 318 320 320 319 319 318 318 317 316 316 315 315 316 315 315 314 313 313 313 312 312 312 312 311 311 311 310 307 303 302 304 307 307
338 339 339 338 337 335 336 335 334 337 336 336 335 334 336 336 334 333 331 330 331 333 335 335 335 335 335 336 336 335 335 334 333 333 333 333 333 332 332 331 331 330 330 329 329 329 329 328 327 326 326 322 319 320 321 320 319 319 318 318 317 316 315 315 316 315 315 315 314 313 313 312 312 312 312 312 312 311 310 310 306 302 301 304 306
338 339 339 339 338 337 337 337 336 338 338 338 338 337 338 337 336 335 332 330 330 333 335 335 335 335 336 336 336 336 336 335 334 334 334 334 333 333 333 332 331 330 330 330 330 330 329 329 328 328 327 325 322 320 320 320 319 319 319 318 318 317 316 315 315 315 315 315 314 314 313 313 313 312 312 312 312 311 310 310 308 303 300 300 303
338 338 338 339 339 339 339 338 338 339 340 340 340 340 340 339 339 335 332 330 330 334 336 336 335 335 335 336 337 337 336 336 335 335 335 334 334 334 333 333 332 331 331 330 330 330 330 329 329 329 328 327 326 323 322 321 320 318 318 319 318 317 317 316 314 313 314 315 314 314 314 313 313 312 312 312 312 311 311 311 309 305 301 299 299
339 339 339 339 339 340 339 339 340 340 341 341 340 340 341 341 340 335 331 330 330 336 339 336 334 335 335 335 335 336 336 337 336 335 335 335 335 335 334 334 333 332 331 331 331 330 330 330 329 329 328 328 327 326 325 324 323 320 318 319 319 318 317 317 316 313 313 314 314 314 314 313 313 312 312 312 312 312 311 311 310 305 299 297 297
338 339 338 338 338 339 339 339 340 341 342 342 341 340 340 341 340 337 334 331 329 336 340 337 334 335 335 335 334 335 335 336 337 336 335 335 335 335 335 335 334 333 333 332 332 331 331 330 330 329 329 329 328 327 327 326 325 323 319 317 319 320 318 317 317 315 313 313 313 314 314 314 313 312 312 312 312 311 311 311 309 302 296 295 296
338 338 338 337 337 338 339 338 340 342 342 342 341 341 341 341 341 339 336 333 330 335 340 339 337 336 335 334 334 334 333 333 335 336 336 335 334 334 334 335 335 335 334 333 332 332 331 331 330 330 329 329 329 328 328 327 326 325 322 317 317 319 319 318 318 317 315 313 312 314 314 314 313 313 312 312 312 311 311 311 309 302 297 296 296
338 337 337 337 337 338 339 338 338 341 342 341 341 342 342 341 341 340 338 335 332 335 339 340 339 338 336 335 335 335 335 334 333 334 336 336 335 335 335 335 336 336 335 334 333 333 332 332 331 331 330 330 329 328 328 328 327 326 325 320 318 318 319 319 318 317 317 315 314 315 314 314 314 313 313 312 312 311 311 311 310 307 299 295 296
339 338 337 338 338 338 339 338 338 341 342 341 341 341 342 341 340 340 340 338 335 335 338 339 339 339 338 337 337 338 338 336 334 333 334 336 336 336 335 335 335 335 335 335 334 334 333 333 332 331 331 330 330 330 328 328 328 327 326 324 321 318 317 319 320 318 318 316 316 316 315 315 314 313 313 312 312 311 311 311 311 309 300 294 296
338 338 338 338 338 339 339 338 339 340 341 341 341 341 341 341 341 340 340 340 339 338 338 338 339 339 338 338 338 338 338 337 336 335 333 334 336 337 336 336 335 335 335 335 334 334 334 335 334 332 332 331 331 330 329 329 329 328 326 324 324 319 316 319 320 319 319 317 316 316 316 316 315 314 313 313 312 312 311 311 311 308 299 295 296
339 339 339 338 338 339 339 339 340 341 341 341 341 341 341 341 342 342 341 341 341 340 339 339 339 339 338 338 338 338 337 337 336 336 335 334 334 335 337 337 336 336 336 337 336 335 335 336 336 334 333 332 332 331 331 330 329 329 327 324 324 322 318 317 320 321 320 319 317 316 316 316 315 314 313 313 312 312 311 311 311 308 300 295 296
341 340 340 339 338 339 339 340 341 341 341 342 341 340 341 341 342 342 341 342 341 340 340 339 339 339 338 339 339 338 337 337 337 336 336 335 335 334 334 336 337 337 337 339 338 337 336 336 336 335 333 333 333 332 332 331 330 329 328 326 325 324 321 317 320 322 321 320 319 317 316 316 315 314 313 313 313 312 312 311 311 310 303 296 296
342 341 341 340 339 339 339 340 341 341 342 342 342 341 341 341 341 342 342 342 342 341 340 340 339 339 339 339 339 338 337 337 337 337 336 336 336 335 334 333 334 335 337 340 339 337 336 336 336 336 335 334 333 333 332 332 331 330 329 328 326 325 323 319 320 322 322 321 320 319 317 316 316 315 314 314 313 312 312 311 311 311 305 298 297
342 343 342 342 341 340 340 340 340 341 342 343 342 342 342 342 341 342 342 342 342 341 341 340 340 339 339 339 339 338 337 337 336 336 336 336 336 336 335 334 334 333 334 339 340 338 337 337 336 336 336 335 334 334 333 332 331 330 328 328 328 326 324 322 321 322 323 322 321 320 319 318 317 316 315 315 314 313 312 312 311 311 308 302 300
342 343 343 342 342 341 341 342 341 341 342 343 343 343 343 343 342 342 343 342 342 342 341 341 341 340 338 339 338 337 337 337 337 337 336 336 336 336 336 334 335 335 333 336 338 338 338 338 336 336 336 336 335 335 334 333 332 331 329 328 329 328 326 324 322 322 323 323 322 322 320 319 318 317 317 316 315 314 313 312 311 311 309 305 304
342 342 343 343 342 341 340 341 343 342 342 342 343 342 341 341 343 343 343 342 342 342 341 341 341 341 340 339 339 338 337 337 337 338 337 336 336 336 336 334 335 335 335 335 336 337 338 338 336 336 337 336 336 336 335 334 333 332 331 329 330 330 327 326 324 322 322 324 323 323 321 321 320 319 318 316 316 315 313 313 312 312 311 308 307
341 342 343 342 342 342 340 340 341 340 339 339 339 339 338 339 340 341 342 342 342 342 342 342 342 342 341 340 339 338 338 338 339 339 338 338 337 336 336 334 334 335 336 336 335 336 336 336 336 337 337 337 337 336 336 335 334 333 333 330 330 331 330 327 325 323 322 323 324 324 322 322 321 319 319 317 316 315 314 313 312 312 311 310 310
342 342 340 336 337 340 341 341 340 338 337 337 336 336 337 338 340 341 341 342 342 342 342 342 342 342 342 341 340 339 338 339 339 339 339 338 337 336 336 335 334 335 336 336 335 335 335 335 336 337 338 338 337 337 336 335 334 333 334 332 330 331 330 329 327 325 324 323 324 324 323 322 322 321 319 318 317 316 315 314 313 312 312 311 311
341 341 339 335 332 334 339 341 341 339 337 336 336 337 338 340 341 342 342 342 342 342 342 342 342 342 342 342 341 340 339 339 339 339 340 339 338 337 336 336 335 335 335 336 335 334 334 335 336 337 338 338 338 338 336 335 335 334 334 334 332 331 330 330 329 327 326 324 323 324 324 324 323 322 320 319 318 317 316 315 314 313 312 312 311
340 340 339 338 334 332 335 340 341 340 339 338 338 339 340 341 342 342 342 341 342 342 342 342 343 342 342 342 341 341 339 339 340 340 340 340 339 339 337 336 335 335 336 336 336 335 334 334 334 335 337 338 338 338 337 336 335 335 334 334 333 333 332 331 330 329 328 326 324 323 324 324 324 323 321 321 319 318 318 317 316 315 314 313 312
338 338 338 338 336 334 335 338 340 340 341 340 339 340 340 340 340 341 341 341 341 341 341 342 342 342 342 342 342 341 340 339 339 340 340 340 340 339 338 337 336 336 337 336 336 336 335 335 334 334 335 337 337 338 338 337 336 336 335 334 334 333 333 332 332 331 329 327 326 324 323 324 324 324 323 322 321 320 319 318 317 316 315 314 313
337 337 336 336 337 336 336 337 338 339 340 339 339 339 339 339 340 340 340 340 340 340 340 341 341 342 342 342 342 341 340 338 338 339 339 339 340 339 339 339 337 337 337 337 336 336 336 336 336 336 335 335 336 338 339 338 337 335 336 335 334 333 333 333 333 332 330 328 327 326 324 324 324 324 323 322 321 321 320 319 318 317 316 315 313
334 335 335 335 335 336 337 337 337 338 338 339 339 339 338 338 339 339 340 340 340 340 340 341 341 341 342 342 342 341 341 339 337 337 338 338 339 339 339 339 338 337 337 338 338 337 336 337 338 338 335 334 336 337 338 339 338 336 335 335 334 333 333 333 333 333 332 330 329 327 325 324 323 323 324 323 322 321 321 320 319 318 316 315 314
333 334 334 335 335 335 336 336 336 337 337 338 338 338 338 338 338 339 340 340 340 340 341 341 342 342 342 342 342 341 341 340 338 337 337 337 338 339 339 339 339 338 337 337 338 338 337 337 337 338 337 336 337 336 337 339 339 336 335 335 334 334 334 333 332 332 333 332 331 330 328 326 324 323 323 323 322 322 321 321 320 319 318 316 315
334 333 334 334 334 334 335 335 336 336 337 337 337 337 337 337 337 338 339 340 340 340 341 341 341 342 342 341 342 341 341 341 340 338 337 337 337 338 339 339 340 339 338 338 338 338 337 337 337 337 337 337 338 337 335 338 339 337 335 334 334 334 334 334 332 332 333 333 332 331 330 328 326 324 323 322 322 322 321 321 320 320 319 318 317
334 334 334 334 334 334 334 335 335 335 336 335 335 336 336 336 337 338 338 339 339 340 340 341 341 341 341 341 341 341 341 341 341 340 339 338 337 337 338 339 340 340 340 339 339 339 338 338 338 338 338 338 339 338 336 336 339 338 337 336 335 334 334 333 333 332 334 334 333 332 331 330 328 326 324 323 322 322 322 321 320 320 319 319 318
334 334 334 334 334 334 334 335 334 335 335 335 334 335 336 337 337 338 338 339 339 339 340 340 340 340 341 341 341 341 341 341 341 341 341 339 338 337 338 339 339 340 340 340 340 339 339 339 339 339 339 339 339 339 338 337 338 338 338 337 336 335 334 333 333 333 333 334 334 333 331 331 330 328 327 324 322 321 321 321 321 320 320 319 319
332 334 334 334 334 334 334 335 335 335 335 335 335 336 336 336 337 337 338 339 339 339 340 340 341 340 340 340 341 341 341 341 341 341 341 340 339 338 338 339 339 339 339 340 339 340 340 340 340 340 340 340 340 340 339 339 338 338 339 338 337 336 335 334 333 333 332 332 333 334 332 331 330 330 329 327 325 322 321 321 321 320 320 320 319
327 329 331 333 333 334 335 334 335 335 335 335 336 336 336 336 337 337 337 338 339 339 339 340 340 340 340 340 340 340 340 340 341 341 341 341 340 339 339 339 339 339 339 339 339 339 339 340 340 340 340 340 340 340 340 339 339 338 339 339 337 336 335 335 334 334 332 331 331 333 333 332 331 330 330 329 327 325 322 321 321 320 320 320 319
323 324 325 327 328 330 332 333 333 334 334 334 335 336 337 336 336 337 337 337 337 338 338 339 339 340 340 340 340 340 340 340 340 340 341 341 341 341 341 340 340 340 339 339 339 339 339 339 340 340 340 340 340 340 340 340 339 339 338 338 338 337 336 336 335 335 334 332 330 330 331 332 330 330 330 329 328 326 325 323 322 321 320 320 319
321 321 322 322 323 324 326 328 330 332 332 333 334 335 336 336 336 337 337 337 337 337 337 337 338 338 339 340 340 340 339 339 340 340 340 340 341 341 340 339 339 340 340 339 339 340 339 338 338 339 340 340 340 340 340 340 340 339 338 338 339 337 336 336 336 335 335 334 332 330 330 331 330 328 328 329 329 328 326 324 323 322 321 321 320
320 320 320 321 321 321 322 324 325 327 329 331 332 332 333 335 335 335 336 336 337 337 337 337 337 337 338 338 339 339 338 338 338 338 339 339 339 339 339 338 338 338 340 340 340 339 338 337 337 339 339 339 339 339 340 340 340 340 339 338 339 338 337 337 337 336 335 334 333 332 331 331 329 327 326 327 328 328 328 327 325 324 324 323 322
319 319 319 319 320 320 321 321 322 324 325 327 328 329 329 330 331 331 332 334 335 336 337 337 337 338 338 338 338 338 338 337 337 337 337 337 338 338 338 338 338 338 339 340 339 338 338 338 338 339 339 339 338 339 339 339 340 340 339 339 339 338 337 337 338 337 336 335 334 333 333 333 330 328 327 327 327 327 327 328 328 327 326 325 324
317 318 318 319 319 319 320 320 320 321 322 323 323 323 321 321 321 322 325 329 331 333 334 335 336 337 337 338 338 338 338 337 337 337 337 337 337 337 337 337 337 337 338 337 337 338 339 339 339 339 339 339 339 339 339 338 339 339 340 340 339 338 337 337 337 337 336 335 334 334 334 334 332 330 330 330 329 328 327 328 329 329 328 327 325
315 316 317 317 318 318 319 319 320 320 321 320 319 317 316 315 315 315 317 322 326 328 330 331 332 333 335 336 337 337 338 337 337 337 337 337 337 337 336 336 336 336 336 336 336 337 338 339 339 339 339 339 339 339 339 339 339 339 339 339 339 338 337 336 336 337 337 335 334 334 334 334 334 332 331 330 330 331 329 328 329 330 329 328 327
313 314 315 315 316 317 318 318 319 319 320 319 318 316 315 314 313 312 313 316 320 323 324 326 327 328 329 331 332 333 334 335 336 337 337 337 337 337 337 337 336 336 336 335 335 335 336 336 337 338 339 339 339 339 340 340 340 340 340 340 339 338 337 336 336 336 337 336 335 335 335 335 335 333 332 331 331 331 331 330 330 330 330 330 329
312 312 313 314 314 315 315 316 317 318 319 318 317 315 314 312 312 311 311 314 317 319 320 322 323 324 325 326 326 327 328 329 331 332 333 335 336 337 337 338 337 337 337 337 336 335 335 335 335 336 338 339 339 340 340 340 340 341 341 340 340 339 338 337 336 336 336 336 335 336 336 336 336 334 333 333 332 332 332 331 331 331 332 331 330
310 310 311 312 313 313 314 314 315 316 317 317 316 315 314 312 311 311 313 315 317 318 319 320 320 321 321 322 322 323 324 325 326 327 328 330 331 333 333 335 335 336 337 337 337 336 336 335 335 335 335 336 337 338 339 339 340 341 341 339 339 340 339 337 337 336 336 336 335 335 336 336 336 336 335 334 333 332 333 333 331 331 332 332 330
308 308 309 309 311 312 313 313 314 314 316 316 316 315 314 313 312 313 315 318 318 319 320 320 321 321 321 321 321 320 321 321 321 322 323 324 327 328 329 330 332 332 334 335 336 337 337 336 336 335 335 335 335 335 336 337 338 339 339 336 335 338 340 339 338 337 336 336 335 334 335 336 336 336 336 335 334 333 333 333 332 332 332 332 331
306 307 307 308 309 310 311 312 313 313 314 315 314 314 313 313 312 313 315 317 318 320 321 321 322 322 322 322 321 321 321 321 321 320 320 321 323 325 326 328 329 329 329 331 333 335 335 336 336 336 336 335 335 335 335 335 335 336 337 334 332 335 338 338 338 338 337 336 336 334 334 335 335 335 336 335 335 334 333 333 333 332 332 332 332
306 306 306 307 308 309 310 310 311 312 312 314 314 314 314 313 312 312 314 316 317 318 319 320 321 321 321 322 321 321 321 321 320 320 320 320 321 323 324 326 327 327 327 328 330 332 334 336 336 336 336 336 336 335 335 335 334 334 335 335 334 336 336 334 335 336 336 336 336 335 334 334 334 334 335 335 334 334 333 333 333 332 332 331 331
Wind_Speed
12 12 13 13 12 12 11 10 10 10 10 9 9 8 8 7 7 8 8 8 9 9 9 8 8 9 9 9 10 11 10 9 9 10 11 10 9 9 9 8 8 10 11 11 11 11 12 13 13 14 14 13 13 13 13 12 11 11 10 10 10 10 10 9 9 9 8 9 8 8 8 8 8 8 8 8 8 8 9 10 10 11 12 12 11
12 11 12 14 13 13 11 10 10 10 11 10 9 8 8 7 7 7 7 7 8 8 8 8 8 8 8 8 9 10 10 9 8 9 10 10 9 8 8 8 7 8 10 10 10 10 11 11 12 13 14 14 13 13 13 12 11 11 11 10 10 9 9 9 9 8 8 8 8 8 8 8 8 8 8 8 7 8 9 9 10 10 11 11 11
14 11 11 13 13 12 11 10 10 10 11 10 9 8 7 7 6 6 6 6 6 7 7 8 8 8 8 7 8 8 9 10 8 8 9 9 8 8 8 9 8 7 8 9 10 10 10 10 11 12 13 14 13 13 12 12 11 11 11 10 10 9 9 8 8 8 8 7 7 7 7 7 7 7 7 7 7 8 8 8 9 10 10 10 10
18 13 11 12 12 12 11 10 10 10 10 10 10 8 7 7 6 6 6 5 6 5 6 7 7 8 7 7 7 7 8 9 9 8 8 8 8 8 8 8 8 6 5 7 9 10 9 9 10 11 12 12 13 13 12 12 12 11 10 10 10 9 9 8 8 8 8 7 6 7 7 7 7 7 6 6 6 7 7 7 8 9 9 9 9
20 16 11 12 12 12 11 10 10 10 10 11 10 8 7 7 6 5 5 5 5 5 5 6 7 7 7 6 6 7 7 8 8 8 8 7 7 8 8 8 8 7 6 7 8 9 9 10 10 10 10 11 11 12 13 12 12 11 10 10 10 10 9 8 7 7 7 7 6 6 6 6 6 6 6 6 6 6 6 7 7 8 8 9 9
19 18 14 12 13 13 12 11 10 10 10 11 10 9 8 7 6 5 5 5 5 5 5 5 6 6 6 6 6 6 6 6 7 7 7 7 6 6 7 6 7 7 8 9 9 8 9 10 10 10 10 10 11 12 12 12 12 12 11 10 10 10 10 9 8 7 7 7 6 6 6 6 6 6 6 6 6 6 6 6 7 7 7 8 9
17 19 16 13 13 13 12 11 11 11 10 10 9 8 8 7 7 5 5 5 4 4 4 4 5 6 6 5 5 5 5 6 6 6 7 7 7 7 6 6 6 7 8 9 9 9 9 9 10 10 10 10 11 12 12 12 12 12 11 11 10 10 10 10 9 7 7 6 6 6 6 5 5 5 5 5 5 5 5 5 6 7 7 7 8
14 19 18 14 13 13 12 12 13 12 10 11 10 9 9 8 7 6 5 5 5 4 3 3 4 5 5 4 4 5 4 5 5 6 6 6 7 7 6 6 6 7 7 7 8 8 9 10 11 11 10 10 11 11 12 12 12 12 12 12 11 10 9 9 10 8 7 6 6 6 6 5 5 5 5 4 4 4 4 4 5 6 6 6 7
13 16 17 14 12 13 12 13 14 12 11 12 11 9 10 9 9 8 7 6 6 5 4 3 3 4 4 4 4 4 4 5 5 5 5 5 6 7 7 7 7 6 6 7 7 8 9 10 11 12 11 11 11 11 11 12 12 13 12 12 12 11 10 10 9 7 7 7 6 6 6 5 5 5 5 4 4 4 3 4 4 5 5 5 6
12 13 14 13 12 12 12 14 14 12 11 12 11 11 11 11 11 10 10 8 7 6 5 3 3 3 4 4 4 4 4 4 5 5 6 6 6 6 7 7 7 7 7 7 7 7 8 8 9 11 12 12 12 12 11 11 12 12 13 12 12 12 11 11 9 7 7 8 7 6 6 6 6 5 5 5 4 3 3 3 4 4 5 4 5
12 11 11 11 12 12 12 14 14 13 12 12 12 12 12 12 12 11 11 11 8 6 5 4 4 4 4 5 5 5 4 4 5 6 6 6 6 6 7 7 8 8 7 7 8 7 8 8 8 10 11 11 12 13 11 11 12 12 12 12 12 12 11 11 11 9 8 8 8 7 6 6 6 5 5 5 4 3 3 2 3 3 4 4 4
12 11 11 10 10 11 12 14 14 13 14 13 13 13 13 13 12 12 12 12 10 8 7 5 4 5 5 6 5 5 5 6 7 7 7 8 8 8 8 8 8 9 9 9 9 9 9 9 9 9 10 10 10 11 12 12 12 12 12 12 12 13 12 12 12 11 9 9 8 7 7 7 6 6 5 5 4 4 3 2 2 2 2 3 4
11 11 11 11 10 10 11 13 14 14 14 14 14 13 13 13 12 12 13 13 12 10 9 7 6 6 6 7 7 7 7 8 9 9 9 9 9 9 9 9 9 10 10 10 10 10 10 10 10 9 9 9 8 10 13 12 12 13 12 12 12 13 13 13 13 13 12 10 9 8 7 7 7 6 6 5 5 4 4 3 2 1 1 3 3
11 12 12 12 11 11 11 13 14 14 14 14 14 13 13 12 12 12 13 14 13 11 11 10 8 8 7 7 7 8 9 9 10 11 11 10 10 11 10 10 10 10 11 11 11 11 11 11 10 9 9 10 9 10 12 11 12 14 13 13 13 14 14 13 13 14 13 12 11 10 9 8 8 7 7 6 6 5 4 4 3 2 1 2 2
12 12 13 13 13 12 11 13 15 15 14 14 15 14 14 14 13 12 12 13 12 11 13 13 10 8 7 6 5 6 7 9 11 12 12 12 12 12 12 12 11 11 11 12 12 13 12 12 12 12 11 10 10 11 12 11 13 13 13 14 14 14 14 14 13 13 14 14 13 11 10 9 9 8 8 7 6 6 5 5 4 3 2 2 2
12 13 13 12 13 13 13 13 15 16 16 15 15 15 15 15 15 14 13 13 13 12 13 14 12 9 7 5 4 4 5 6 9 11 12 13 12 12 12 12 12 12 12 13 13 13 13 13 13 13 13 12 11 11 11 11 13 14 13 14 15 15 15 14 14 13 13 14 15 13 11 10 10 9 9 8 8 7 7 6 6 4 3 3 2
13 13 13 13 13 14 14 14 16 17 17 16 15 15 15 16 15 15 15 14 13 11 12 14 14 12 10 7 4 4 3 5 7 8 11 12 12 13 13 13 13 13 14 14 14 13 13 13 14 15 14 14 14 13 12 11 12 14 14 15 16 17 16 14 15 14 13 13 14 14 13 12 11 10 9 9 9 8 8 7 6 5 3 3 3
13 13 13 14 14 15 15 15 16 17 18 16 15 15 15 16 16 16 16 15 13 12 12 14 14 15 14 12 9 6 3 4 4 5 9 11 11 12 12 13 13 13 14 14 14 14 14 13 14 15 15 15 15 15 14 13 13 13 13 15 16 17 17 15 15 15 14 13 13 14 13 12 12 11 10 10 10 9 9 8 7 6 5 4 3
13 13 14 14 15 15 15 16 16 17 17 17 16 15 15 15 16 16 16 16 15 14 13 13 14 14 15 15 14 12 8 7 5 3 5 8 10 11 11 12 12 13 13 13 14 14 15 15 15 15 16 16 16 16 15 15 16 15 15 16 17 16 16 16 15 15 15 14 14 14 14 13 12 12 11 11 11 10 10 9 9 8 6 5 5
13 14 14 15 15 15 15 15 16 16 17 17 17 16 15 15 15 16 16 15 16 15 14 13 13 13 13 14 15 14 13 13 11 9 6 5 7 10 11 11 12 12 12 13 13 13 14 15 16 16 16 17 16 17 16 15 17 17 17 20 20 17 16 16 16 16 15 15 15 15 15 14 13 12 12 12 11 11 11 11 10 10 7 6 6
13 14 14 15 15 15 15 16 17 17 16 16 17 17 17 16 16 16 17 16 16 16 15 14 14 13 12 13 14 14 14 14 14 13 11 8 6 7 9 11 11 13 13 13 13 13 13 14 15 16 15 16 17 18 17 16 17 18 19 22 22 19 18 18 17 17 16 16 16 16 16 15 14 13 13 12 12 12 12 12 12 11 9 7 8
12 14 15 15 15 15 16 17 17 17 17 16 17 17 18 18 18 18 18 17 17 17 16 15 14 14 13 13 13 13 13 13 13 14 14 12 9 8 9 10 10 12 14 15 14 13 13 13 14 15 15 16 17 17 18 18 18 18 19 23 23 20 19 19 18 18 17 17 17 17 17 16 15 14 14 14 13 13 13 13 13 12 10 9 9
12 13 15 15 16 17 17 17 17 17 17 16 16 16 17 18 18 18 18 19 19 18 17 17 16 15 15 14 14 13 13 13 13 13 13 13 10 9 11 11 11 11 12 14 14 13 13 13 14 15 15 15 15 16 17 18 19 19 21 23 21 20 21 20 20 20 19 19 19 18 18 17 16 16 16 15 15 14 15 14 14 14 12 11 11
14 14 15 16 17 18 19 18 18 18 17 16 16 15 16 17 18 18 18 19 19 19 18 18 18 17 16 16 16 15 15 15 14 14 14 14 12 10 11 11 10 10 10 11 13 13 14 14 14 15 14 14 14 15 16 17 19 20 23 24 22 20 21 21 21 21 20 21 20 20 19 19 18 18 17 17 16 16 16 16 15 15 14 13 13
17 16 16 17 18 19 19 19 19 19 18 17 16 15 15 15 17 18 19 19 19 19 18 18 18 19 17 17 17 17 17 16 15 15 15 15 14 13 13 12 10 10 10 10 12 12 14 15 14 14 14 14 13 14 16 17 18 21 24 24 23 21 22 23 22 22 22 22 21 21 21 21 20 20 19 18 18 17 17 17 17 17 16 15 14
18 17 16 17 18 19 20 20 19 19 19 18 18 18 17 16 17 18 20 20 18 19 19 19 19 19 18 17 17 17 17 17 16 16 16 16 16 14 13 13 12 13 12 12 12 12 14 15 15 14 13 13 13 14 16 17 18 21 23 23 22 21 21 23 23 24 24 23 22 22 22 22 22 21 21 20 20 20 19 18 18 17 17 17 16
19 18 17 16 17 18 19 21 22 22 22 21 21 20 20 20 20 21 22 22 20 19 19 20 20 20 20 19 18 17 18 17 17 17 17 17 16 16 14 11 10 11 11 12 13 14 14 13 14 15 13 13 14 15 16 17 18 21 22 21 22 21 20 22 24 25 26 25 24 23 23 24 23 23 23 22 22 22 21 20 19 18 18 18 17
20 21 21 20 19 18 18 19 22 25 25 24 23 22 22 22 22 21 22 22 20 20 20 20 20 20 20 20 19 18 18 18 18 18 18 18 18 17 17 14 11 8 8 10 11 12 14 13 13 14 14 13 13 15 16 17 18 19 20 20 23 23 22 23 24 25 27 27 26 25 25 25 24 24 24 23 24 24 23 21 20 20 20 19 19
19 19 21 22 22 21 20 18 20 23 24 24 24 23 21 21 20 20 20 20 19 20 20 20 20 20 20 20 19 19 18 18 19 19 18 18 18 18 18 18 16 11 7 7 8 9 11 13 13 13 14 14 13 15 16 16 17 17 18 20 23 25 24 24 24 25 26 29 29 27 27 26 25 25 24 24 24 24 23 22 20 21 21 20 20
18 17 17 20 22 23 22 19 19 21 22 22 21 20 20 19 19 19 19 18 18 19 19 18 19 19 19 20 19 19 18 18 18 19 19 18 18 19 19 19 19 16 12 9 8 10 11 11 13 12 14 15 15 16 16 16 16 14 16 19 22 26 27 25 25 25 25 28 30 30 30 28 27 27 25 24 24 24 25 24 22 21 22 22 22
16 16 16 18 19 20 20 19 19 20 20 20 19 19 19 18 18 18 17 17 18 19 19 18 18 18 18 19 19 19 18 19 19 19 19 19 19 19 19 19 20 19 18 14 10 11 12 12 13 13 13 15 16 17 17 17 17 15 16 18 20 24 27 26 25 26 26 27 29 30 31 31 30 29 28 26 25 25 26 25 24 23 23 24 24
15 15 17 18 18 18 17 17 18 19 19 19 19 18 18 17 17 16 17 18 19 20 19 18 18 18 18 19 19 19 19 19 20 20 20 20 19 19 19 19 21 20 20 19 14 13 15 15 14 14 13 15 17 18 18 18 18 18 18 18 19 21 24 26 26 27 28 29 29 30 31 33 33 33 31 29 27 26 27 27 26 25 25 26 27
14 15 17 18 18 18 18 18 19 19 19 19 18 17 17 17 16 16 16 18 19 19 19 19 19 19 20 20 20 19 20 20 20 19 20 19 19 20 20 20 22 21 20 20 18 17 18 17 16 15 14 15 18 19 18 17 18 20 21 20 20 21 23 24 25 27 30 31 31 31 32 33 35 35 35 33 31 29 29 29 29 28 28 28 28
14 14 15 16 17 18 18 19 19 19 20 20 19 18 18 17 17 17 17 18 19 19 19 19 20 20 20 21 20 20 20 21 21 20 20 20 19 20 21 21 22 22 21 21 20 18 19 18 17 17 15 16 18 19 18 17 17 19 22 23 22 23 24 24 24 26 30 33 34 33 34 34 35 36 37 37 35 33 31 31 31 31 31 30 29
13 13 14 16 17 16 17 18 18 18 20 21 20 19 19 17 17 17 17 18 19 19 19 20 20 20 20 21 21 20 20 20 21 21 21 21 21 21 21 22 22 23 23 22 21 20 20 19 18 18 17 17 18 18 18 17 17 17 19 21 21 22 24 25 24 23 26 31 34 35 35 35 36 37 38 39 39 37 35 34 33 34 34 32 30
11 12 14 15 16 16 17 18 18 19 20 21 20 19 19 18 17 18 17 18 18 18 19 20 20 20 20 20 21 20 20 20 21 21 21 21 22 21 22 22 22 23 23 23 23 22 21 20 19 19 18 18 18 18 18 17 18 17 17 18 19 20 22 24 24 24 24 26 30 34 36 36 37 38 38 40 41 40 39 37 37 37 36 35 33
9 10 11 13 15 16 18 18 18 18 19 20 20 19 19 18 18 18 17 18 18 19 19 20 20 21 21 21 21 20 20 21 21 22 22 22 22 22 22 22 22 23 23 23 23 23 22 22 22 20 19 19 19 18 18 17 18 18 18 18 20 20 20 21 23 23 24 26 27 30 34 37 37 38 39 40 41 42 42 41 40 40 38 37 37
6 8 9 11 12 14 15 16 16 17 17 18 18 18 19 18 18 18 17 17 18 19 19 20 20 21 22 21 21 21 21 22 22 22 22 22 23 23 22 23 23 23 22 22 22 22 23 24 23 22 21 21 21 20 19 17 17 19 19 18 20 21 21 21 21 20 22 26 29 29 31 35 38 39 40 40 42 42 43 43 43 43 41 40 40
3 5 7 8 10 11 12 13 14 15 16 16 16 17 17 17 17 17 17 18 18 18 18 19 19 20 21 21 21 21 22 22 22 22 22 23 24 24 23 23 23 23 22 21 21 21 22 22 23 23 22 21 21 21 20 18 18 19 19 18 19 21 23 23 22 20 19 23 27 29 30 32 35 39 40 41 42 43 43 44 45 45 44 43 43
4 4 4 6 7 9 10 11 12 13 14 16 16 16 16 16 17 17 18 18 18 18 18 18 18 19 20 21 21 21 22 23 23 22 22 22 21 21 23 24 23 22 22 21 21 21 21 20 20 20 20 20 19 19 19 18 19 20 20 20 20 20 21 23 23 22 20 21 22 25 29 31 33 37 40 42 43 44 44 45 45 46 46 46 46
6 6 6 6 7 8 9 10 10 11 12 14 14 15 15 15 15 16 17 17 18 19 19 18 19 19 19 19 20 21 22 23 24 24 24 23 22 22 24 25 24 23 23 22 21 20 18 18 19 19 18 19 18 18 18 18 20 20 19 19 19 18 19 22 23 23 23 22 21 21 25 29 32 35 38 43 45 45 46 46 47 48 48 48 49
8 8 8 8 9 9 9 9 10 10 11 11 13 16 16 16 16 15 15 16 17 17 18 19 19 20 20 20 20 22 24 25 26 27 29 29 29 29 29 26 24 23 22 22 22 21 19 19 20 19 18 19 19 19 20 19 20 21 19 18 18 18 18 20 21 22 23 23 22 21 22 24 26 27 32 38 43 44 47 49 49 50 50 49 50
9 9 9 10 11 11 11 11 11 10 10 11 13 16 17 17 17 16 15 15 16 16 17 18 19 19 19 20 20 21 23 25 27 29 31 33 34 35 35 34 32 29 25 23 23 23 21 21 22 20 19 20 20 20 21 20 20 22 22 20 19 19 19 20 19 19 21 23 24 23 23 22 24 24 26 30 34 37 44 50 51 50 50 50 50
10 10 11 11 12 12 12 13 14 13 13 13 15 17 17 16 17 17 16 15 15 16 16 17 18 18 18 19 20 20 21 22 24 25 27 29 31 33 35 37 38 38 37 36 33 30 25 23 22 22 21 21 21 21 22 21 21 22 22 21 22 21 20 21 20 18 18 21 24 25 23 23 25 26 25 27 29 31 37 44 48 50 50 50 50
12 13 13 13 13 13 14 14 15 15 14 15 18 21 20 19 19 19 17 16 15 16 16 17 17 17 18 18 19 19 20 21 22 23 23 25 27 29 31 32 34 37 39 40 40 39 37 31 26 24 23 23 23 23 23 23 22 22 21 23 24 24 23 24 24 21 16 18 23 23 22 22 25 27 27 27 28 30 33 37 41 45 49 50 49
13 14 15 15 15 16 15 15 15 15 15 16 18 22 23 22 21 21 20 19 18 18 18 18 19 19 19 19 19 19 19 20 21 22 22 24 25 26 28 30 32 34 35 37 38 40 42 42 39 35 29 27 27 26 25 24 24 24 24 24 25 26 27 27 26 22 17 19 23 21 19 22 24 27 28 27 26 29 32 34 36 37 41 46 49
14 14 15 15 16 16 16 16 16 16 15 15 18 21 22 22 22 21 20 19 18 19 19 20 21 21 21 21 22 22 22 22 23 23 24 25 25 26 26 27 28 29 31 33 35 36 39 43 46 45 39 35 33 30 29 28 27 27 27 26 24 24 24 24 24 22 20 21 24 20 18 22 24 25 27 27 26 28 29 32 36 37 35 39 44
14 14 15 15 15 16 16 16 17 17 16 15 17 19 19 19 18 17 17 17 17 18 19 19 20 21 21 21 22 22 23 24 25 26 28 28 28 28 29 29 29 29 29 30 31 34 36 38 41 44 43 43 40 37 34 32 29 27 27 28 27 24 22 21 22 23 23 23 26 24 21 23 24 24 26 26 25 27 28 29 34 37 35 35 37
14 15 15 15 15 15 16 16 16 17 16 14 14 16 16 15 13 12 13 14 15 16 17 17 18 19 20 21 22 23 24 25 27 29 30 31 31 30 31 31 31 32 32 31 31 34 36 37 38 40 41 43 43 42 40 39 37 33 28 25 26 25 22 18 17 20 22 23 28 28 24 24 25 24 25 25 24 26 28 27 30 35 37 36 36
14 15 15 15 15 15 15 15 15 16 16 15 15 15 15 13 12 11 12 13 13 14 15 16 17 18 19 21 23 25 25 27 29 31 32 33 32 31 31 32 32 32 32 31 31 34 37 38 40 41 41 41 40 41 40 40 43 43 38 32 28 26 22 18 17 20 22 24 28 30 26 25 26 26 23 19 18 24 30 28 27 30 35 37 36
13 13 13 14 14 14 14 15 15 16 16 15 14 13 12 12 11 10 11 13 13 14 15 16 16 17 18 20 22 25 27 29 32 34 34 35 34 32 31 31 32 33 32 32 32 33 33 34 36 39 41 42 42 42 42 38 38 42 45 44 39 32 25 23 23 20 18 21 28 33 30 25 25 27 24 16 13 19 28 30 26 26 31 36 37
Wind_Direction
153 150 146 145 148 149 148 152 154 157 157 155 150 146 146 145 143 138 130 126 123 124 122 118 116 113 112 106 102 102 104 110 111 111 112 114 119 130 137 132 133 135 133 135 134 133 134 134 134 132 130 131 133 132 131 132 131 130 130 127 125 123 120 118 114 110 109 110 108 105 103 101 98 94 91 86 81 78 72 67 66 65 63 59 56
157 155 152 151 152 151 150 155 156 159 160 158 156 151 149 148 148 145 139 132 126 127 127 124 121 116 116 115 108 104 106 111 112 112 112 114 116 125 141 141 140 140 139 141 139 138 140 141 140 139 137 136 136 137 137 137 137 136 135 132 130 129 128 124 120 116 112 113 112 109 108 108 105 101 98 93 86 83 75 72 71 70 67 63 60
163 158 158 156 154 154 152 156 158 160 162 160 160 158 154 152 152 150 147 140 131 130 129 127 126 120 118 119 115 107 107 111 113 116 115 119 121 122 135 143 147 150 144 143 145 144 145 149 149 146 145 145 144 143 142 142 144 144 141 139 137 136 135 132 129 126 119 117 118 116 115 114 111 108 105 101 96 90 82 77 77 76 71 67 64
172 163 162 161 157 159 156 158 162 162 164 163 163 161 157 155 154 153 152 145 139 136 130 128 126 124 123 122 120 113 109 111 117 121 119 122 129 131 135 141 150 160 150 141 149 151 152 156 153 150 150 151 152 151 149 149 149 148 148 147 146 143 141 140 139 136 132 129 127 123 121 119 116 113 108 106 102 95 89 83 80 81 78 74 69
180 172 166 167 165 164 163 163 165 164 163 162 164 163 161 159 157 158 159 157 152 145 139 132 124 127 131 129 126 121 116 114 118 124 124 126 134 140 142 143 149 158 159 151 154 158 161 161 153 152 158 157 157 157 155 155 153 154 154 152 152 151 148 146 146 144 142 140 137 131 127 125 120 117 113 108 104 97 93 88 83 83 82 81 75
186 182 174 173 171 170 170 170 169 168 164 163 166 168 168 169 171 173 172 173 165 156 152 138 130 131 136 138 135 132 129 124 121 125 127 130 138 152 152 150 154 161 166 166 168 172 173 172 167 165 166 164 162 162 160 159 159 159 159 158 158 160 156 151 151 149 147 146 145 139 133 130 126 124 120 113 109 103 97 94 88 84 83 84 81
189 189 184 178 177 176 176 177 176 173 170 170 171 173 175 177 182 185 186 193 184 172 164 143 137 135 137 147 145 143 144 137 133 133 134 138 147 159 163 161 166 169 171 174 180 188 187 184 184 178 174 174 171 168 166 164 165 166 165 164 164 164 162 159 156 155 154 149 147 146 140 135 131 128 123 117 112 106 103 102 94 89 84 84 84
191 195 193 185 182 183 180 182 181 177 177 177 178 180 181 182 186 191 198 205 199 194 189 158 147 141 143 153 153 157 158 152 153 150 149 152 154 161 169 175 177 175 181 182 183 196 197 190 191 188 184 184 179 175 174 172 172 172 172 171 170 169 168 165 159 159 164 157 149 149 146 139 136 133 125 120 117 112 108 105 98 95 87 82 85
194 199 198 193 189 186 183 187 185 181 181 182 186 190 188 189 191 196 207 216 213 208 205 189 172 158 155 163 168 173 175 171 168 167 171 172 167 168 176 183 181 181 191 192 184 190 197 198 202 201 195 190 186 184 182 181 180 178 178 177 175 174 173 172 169 166 165 160 153 153 152 147 143 141 136 134 130 122 116 108 100 99 92 82 84
195 200 202 201 196 189 186 190 188 185 185 186 191 195 195 195 196 200 207 217 224 216 211 212 205 189 179 184 187 189 192 187 184 188 194 195 189 181 185 188 189 195 201 202 199 193 194 202 211 210 205 201 196 195 193 188 187 184 183 183 181 180 178 178 180 172 160 158 157 157 158 155 154 154 150 148 142 132 126 116 102 102 101 91 85
195 201 204 207 203 195 190 191 190 189 189 190 193 196 197 198 198 201 204 213 223 224 218 219 218 208 196 198 203 206 209 208 205 208 211 212 209 201 200 197 195 203 207 208 209 206 205 202 203 208 209 210 202 199 203 197 194 193 189 188 187 186 183 182 183 174 163 162 161 162 162 163 165 162 158 155 150 145 142 127 104 102 106 102 90
194 200 206 212 211 204 195 191 192 192 192 194 198 199 197 198 200 202 203 208 215 220 218 218 217 201 195 203 207 211 217 225 227 225 223 221 221 220 216 211 206 205 209 215 211 209 214 208 208 212 208 214 213 202 206 208 203 202 200 197 194 192 189 185 184 179 174 172 168 171 171 171 173 170 168 166 162 161 158 154 130 108 109 111 102
193 198 206 215 216 214 203 195 195 196 196 197 200 201 197 197 200 203 204 205 209 211 210 213 212 197 195 204 206 210 213 223 234 234 234 231 227 228 225 221 219 213 213 218 218 215 217 213 216 221 209 211 220 209 211 217 213 209 207 207 203 199 196 191 190 187 183 182 180 181 180 178 179 177 176 175 178 179 171 174 174 150 124 119 112
194 198 206 213 215 217 211 204 201 201 201 198 198 199 198 196 195 201 207 207 209 206 201 205 214 210 205 206 206 209 209 218 232 234 235 236 232 231 230 229 228 222 219 219 223 223 221 219 218 223 215 206 206 206 211 220 221 215 210 212 213 207 203 200 200 194 189 189 187 186 186 184 186 184 183 185 188 190 182 184 190 193 196 151 126
198 200 206 211 215 218 215 212 209 206 204 200 198 200 201 201 198 200 203 208 212 205 199 206 220 219 209 216 212 206 208 213 225 229 228 230 232 233 231 232 232 229 225 223 226 227 224 223 220 222 221 214 212 205 204 214 223 225 217 212 215 214 210 207 207 203 196 194 189 187 190 190 191 190 189 189 191 196 193 190 197 209 224 209 155
202 203 208 211 216 222 220 217 214 212 210 205 203 204 204 204 203 202 199 203 211 207 203 211 224 224 214 220 209 214 224 201 204 214 216 220 227 231 232 232 234 233 232 230 230 232 230 227 225 226 224 223 223 213 209 213 221 235 236 217 213 216 216 211 211 210 205 201 194 190 192 192 193 192 192 194 195 202 201 195 205 220 222 213 180
203 206 212 214 218 224 225 222 217 217 217 215 212 208 207 206 205 205 201 200 206 208 208 212 222 229 233 236 216 228 238 185 188 197 200 212 220 225 229 230 231 232 236 238 236 235 234 232 231 231 228 224 222 218 220 219 217 232 239 226 215 214 217 215 214 214 212 209 201 196 195 193 195 196 196 199 199 201 201 200 208 219 214 208 195
205 209 214 216 220 225 226 225 220 219 222 224 223 216 212 210 208 210 208 203 205 211 214 213 218 226 234 245 254 270 266 187 195 196 193 207 219 224 226 225 229 232 235 241 241 238 237 236 234 234 233 230 226 221 221 220 217 218 222 225 223 217 214 214 216 217 216 214 208 203 202 198 198 200 200 202 202 200 203 205 205 209 212 212 201
209 213 216 218 221 223 224 223 221 221 223 226 229 225 221 218 215 216 215 209 206 213 219 216 218 223 228 241 253 263 260 234 235 246 214 209 213 221 223 221 225 231 234 237 240 239 238 237 236 234 233 233 231 225 222 220 222 220 217 221 227 224 215 211 214 218 218 218 214 210 209 206 203 202 204 206 206 204 204 204 204 207 210 207 204
212 214 218 219 219 221 222 221 221 224 225 227 232 231 228 227 223 222 223 219 214 215 220 220 221 224 223 232 243 249 251 249 250 256 263 246 217 216 221 221 224 228 231 233 235 236 237 236 237 236 233 234 233 227 224 224 225 225 220 220 224 224 215 208 210 215 219 220 217 215 213 212 209 206 209 211 209 207 206 206 208 212 211 201 202
215 216 216 216 216 217 219 220 222 226 229 232 235 235 235 233 229 227 226 228 225 221 222 222 223 225 223 225 234 240 243 247 248 247 253 259 247 226 215 212 222 231 228 228 231 231 233 233 234 237 236 234 234 230 227 225 227 226 221 223 228 225 216 209 204 206 215 218 217 217 215 214 212 210 213 215 213 212 208 209 212 213 212 204 199
215 217 217 215 215 216 219 222 225 229 233 237 239 239 239 237 234 233 231 232 232 229 226 226 226 228 229 228 230 235 239 241 239 238 242 247 252 253 235 218 224 232 224 222 227 227 228 228 230 235 237 234 234 232 227 224 225 226 223 229 233 228 222 213 203 203 210 214 216 216 214 214 214 214 215 216 217 217 212 210 214 214 215 211 202
221 215 217 215 215 217 220 225 229 233 236 240 242 242 242 241 239 237 237 236 235 234 232 231 231 231 232 233 232 234 238 241 238 234 236 241 245 253 250 241 242 240 224 216 221 225 224 224 226 230 233 234 232 232 231 225 223 221 221 231 236 231 227 219 207 204 207 211 213 214 214 213 214 215 216 217 219 220 217 212 214 218 220 217 208
228 216 214 214 215 217 220 223 227 231 235 239 243 244 245 246 244 241 239 238 237 237 236 234 234 234 234 235 236 238 239 242 244 240 237 240 246 251 251 249 250 250 234 217 222 229 226 224 225 226 227 231 231 229 230 226 223 222 223 232 239 233 229 226 216 208 208 210 209 210 213 212 213 215 215 217 219 220 220 218 215 218 224 222 213
226 220 215 213 213 216 219 222 224 226 228 232 235 239 244 248 250 247 244 242 239 237 237 235 234 234 236 237 237 239 241 240 242 243 242 242 247 252 255 254 254 256 248 230 231 235 230 226 224 221 220 224 226 222 222 221 219 226 230 234 241 238 231 230 224 213 210 212 209 209 212 212 212 215 215 216 218 220 221 221 218 219 226 226 218
227 224 220 217 216 218 220 221 222 223 223 226 228 229 234 242 249 251 250 249 244 239 238 236 235 235 236 239 239 239 241 240 239 240 242 242 245 250 255 256 253 255 256 247 242 236 231 227 220 218 217 217 217 213 216 216 215 228 235 233 240 242 233 230 228 218 213 213 213 211 212 213 212 214 215 214 216 219 219 220 220 220 225 227 222
228 229 228 226 224 225 224 222 223 225 226 229 233 233 233 235 241 248 252 252 249 244 241 238 236 235 234 236 240 242 241 240 238 238 239 241 246 249 253 256 252 249 251 251 247 239 235 230 219 216 215 213 211 209 212 212 213 229 236 231 233 238 232 227 227 222 216 214 215 215 214 214 213 215 216 214 216 218 216 216 220 222 224 225 223
229 234 237 239 238 235 233 229 228 230 230 231 234 236 237 237 238 242 245 246 247 246 243 241 239 237 236 237 239 242 243 242 241 240 240 243 246 247 247 249 253 253 250 249 249 244 236 230 222 215 212 211 207 207 212 211 214 228 235 228 226 231 228 224 224 224 221 217 214 215 217 216 215 216 216 216 217 218 215 214 218 222 224 226 225
233 237 240 243 246 244 240 235 232 232 231 232 234 235 238 238 237 237 236 237 241 243 244 244 242 240 240 240 239 242 245 244 243 243 243 244 246 248 246 244 247 253 260 256 254 254 239 227 226 216 206 207 203 203 209 210 213 223 229 226 224 227 228 224 222 223 222 220 216 213 216 218 217 217 217 217 217 217 215 215 218 222 223 226 227
242 242 241 242 247 251 247 240 235 232 229 230 232 232 234 236 237 236 236 236 238 241 241 242 244 244 244 243 241 241 243 244 243 244 244 245 245 245 245 245 245 246 255 262 261 264 255 234 235 228 206 201 200 200 205 207 212 217 221 225 224 226 231 227 223 223 222 222 219 215 214 215 218 219 219 219 218 217 216 216 218 221 223 227 228
250 249 247 245 247 251 249 242 239 236 231 229 229 229 231 234 238 238 236 236 238 240 239 237 240 242 243 245 242 239 241 242 241 241 242 244 243 243 244 244 244 243 247 256 259 261 259 246 244 241 222 210 204 202 204 207 216 219 216 224 226 226 233 233 227 224 222 221 220 218 215 214 216 219 220 219 219 218 217 215 217 220 222 226 230
253 252 252 250 248 247 244 239 238 239 237 234 230 229 232 233 235 237 235 234 236 238 237 235 236 236 237 239 240 238 239 240 241 239 239 241 241 242 242 241 242 241 242 248 254 257 258 255 253 247 237 228 218 212 208 206 216 221 215 219 225 225 230 234 229 224 222 221 220 219 218 217 216 217 219 219 219 218 218 216 216 219 221 224 228
252 251 250 250 249 247 243 239 237 237 236 233 228 228 232 233 232 233 232 232 233 234 236 235 235 235 234 236 237 236 235 237 240 239 237 237 237 238 240 240 242 240 237 241 250 256 257 258 256 252 243 236 230 225 220 210 213 221 218 214 218 222 226 230 229 224 222 223 223 220 219 219 218 217 218 220 220 219 218 218 218 219 222 224 228
247 245 244 246 247 246 245 243 240 238 236 233 232 231 231 230 231 231 230 230 232 232 235 237 237 238 236 236 239 238 236 236 238 239 239 237 235 235 236 237 239 239 236 237 244 253 257 256 256 254 247 241 237 234 231 222 215 219 219 214 213 218 223 224 224 225 224 223 225 224 220 220 221 219 218 219 222 221 219 219 220 220 222 224 227
243 242 240 241 242 241 242 243 241 241 241 240 238 235 233 231 230 230 229 230 232 233 235 238 241 244 244 242 241 241 240 239 236 237 240 240 239 238 237 236 237 239 238 237 239 246 253 256 256 255 250 245 242 240 241 237 227 222 221 217 213 214 220 221 217 221 227 225 225 226 222 220 221 222 220 220 221 223 222 221 221 222 223 225 227
243 241 239 238 239 238 238 240 241 243 245 246 243 239 238 237 233 232 229 228 230 232 235 239 241 245 248 247 246 244 243 242 238 235 237 240 241 242 242 241 239 240 240 238 238 241 247 253 254 254 254 251 248 246 247 244 235 231 229 225 221 216 219 221 216 218 228 230 228 228 225 222 221 222 223 222 222 223 224 223 223 224 225 227 229
250 247 243 240 240 240 239 239 241 241 242 244 244 242 241 240 238 236 233 230 229 229 231 236 240 242 244 246 248 246 244 244 242 238 236 237 240 242 243 243 242 242 241 240 240 241 243 248 251 253 254 254 254 252 249 247 241 236 233 232 233 229 223 223 221 219 225 231 231 230 228 226 225 224 224 224 224 224 225 225 225 226 227 228 230
264 256 250 245 244 244 243 242 241 240 241 242 245 245 243 241 240 239 239 237 236 233 232 233 236 239 242 243 245 245 245 245 245 243 239 238 239 239 240 243 244 244 244 244 244 243 244 247 250 252 252 253 256 254 250 248 243 239 235 229 232 236 232 229 228 221 220 228 232 230 229 227 226 226 227 226 226 226 226 227 228 229 229 229 230
290 272 261 255 251 248 246 245 243 244 245 245 247 249 247 245 243 242 241 241 242 242 239 237 237 239 241 243 244 245 246 247 247 246 244 243 242 240 239 241 244 245 246 245 245 244 246 248 250 251 252 252 253 253 250 247 244 242 240 233 229 235 238 235 232 226 220 227 233 232 231 230 228 227 228 228 228 228 227 228 229 230 231 231 231
307 294 283 273 264 257 253 249 246 248 248 247 247 248 247 247 247 246 245 245 246 247 246 245 244 243 243 244 245 245 246 247 247 246 245 246 247 245 242 241 241 242 243 244 244 244 244 247 250 251 252 251 250 251 249 245 242 239 239 242 237 234 239 240 236 233 226 222 227 230 230 230 230 229 229 230 230 229 229 230 230 231 232 232 233
304 299 294 287 277 268 261 254 249 247 246 244 244 245 245 247 249 249 249 248 248 248 249 250 248 248 248 246 245 245 246 247 247 245 243 242 243 244 245 245 243 241 241 242 243 243 242 246 249 249 250 249 247 247 244 239 239 237 236 243 241 231 239 247 241 237 233 225 222 223 223 225 226 226 228 230 230 229 229 230 231 231 232 233 233
299 297 292 288 283 276 269 263 256 250 246 243 242 242 242 244 249 255 258 256 254 253 251 251 251 251 250 249 248 247 248 249 250 249 247 244 242 243 244 244 244 245 246 244 243 243 242 244 246 244 245 247 245 245 244 239 238 237 232 235 239 233 239 248 243 235 235 232 227 224 223 221 219 219 222 226 229 230 229 229 229 230 230 231 232
298 295 288 283 280 277 274 271 266 260 254 249 245 242 241 243 249 256 262 265 264 260 257 255 255 255 253 253 252 251 250 250 250 251 251 250 248 247 247 245 243 244 248 251 251 248 244 243 245 243 243 246 245 244 246 243 237 235 231 231 235 234 235 245 245 235 230 229 228 231 230 222 214 213 216 221 225 227 229 230 229 229 230 230 231
297 292 288 282 278 275 272 271 269 265 261 257 254 252 252 253 255 257 260 266 268 266 264 262 261 260 259 258 257 255 254 251 250 252 253 254 255 254 253 250 248 247 248 251 254 254 251 248 246 244 242 246 247 244 244 243 237 233 232 231 234 233 233 241 248 245 233 221 223 233 238 228 218 217 221 221 219 221 227 231 232 231 231 231 231
293 287 284 281 279 277 273 270 267 265 263 263 263 265 266 265 264 262 260 262 265 266 266 267 267 267 265 265 263 260 258 256 255 255 255 257 259 260 259 257 254 253 252 251 250 251 253 256 255 250 245 244 246 245 244 243 241 235 229 228 231 231 231 235 239 244 239 215 213 227 240 234 222 221 228 227 220 220 224 229 234 234 233 233 233
290 286 283 280 277 276 274 272 270 267 265 263 264 267 269 269 269 266 262 260 260 261 262 263 264 265 266 267 267 266 265 264 261 259 258 258 259 260 260 258 256 257 257 255 252 250 250 252 254 254 251 248 248 246 244 243 241 237 231 227 226 225 226 230 231 235 235 218 210 220 239 241 227 223 232 234 226 224 225 227 233 235 234 234 234
292 289 286 282 277 275 275 275 275 274 270 267 267 269 271 272 273 271 268 264 261 260 260 259 260 262 262 264 266 267 268 267 265 264 264 264 263 262 261 259 256 255 255 255 254 252 250 249 249 249 250 251 252 251 250 248 245 241 235 231 230 225 224 229 230 232 237 229 216 214 235 244 232 223 232 239 235 232 229 228 232 236 234 233 233
297 294 290 287 282 278 277 276 275 276 275 275 275 277 280 279 277 274 271 266 261 260 259 259 259 260 261 262 263 265 265 265 265 264 264 265 267 267 266 264 262 260 257 254 255 256 254 251 249 247 247 248 249 249 250 251 252 251 244 241 242 235 226 227 232 236 240 233 220 216 229 245 241 229 232 237 237 238 237 232 233 236 235 233 233
300 297 294 290 285 282 280 277 275 276 278 280 281 284 288 289 286 281 274 269 265 263 263 262 262 261 261 260 261 263 264 264 264 263 263 263 263 264 265 265 265 264 262 260 259 260 261 259 256 253 250 249 250 250 250 250 252 257 257 252 247 240 231 228 230 235 238 232 222 218 225 238 241 238 239 239 235 238 241 237 233 237 239 236 233
301 298 297 293 288 284 281 278 277 278 278 279 282 287 290 294 296 289 281 278 274 271 270 268 266 266 264 262 261 262 262 262 262 262 262 262 261 260 260 261 261 261 261 261 260 260 262 263 261 259 255 253 252 253 254 253 252 253 257 256 252 245 238 234 233 236 239 236 228 221 221 229 235 239 245 246 238 239 244 243 236 237 241 240 236
304 302 299 296 293 290 285 283 282 281 279 279 283 289 292 297 300 292 283 282 282 280 279 277 274 272 270 267 264 263 263 264 264 264 263 263 263 262 261 261 260 259 258 257 256 256 258 258 258 257 255 254 253 251 252 255 253 250 250 253 251 245 238 238 240 239 241 243 233 221 217 222 228 232 234 236 239 242 242 241 237 233 237 240 238